Showing default

COSMOS 2590, 64527

Orbit data source: Space-Track

COSMOS 2590, 64527 is a payload satellite owned by Resehetnev ISS (CIS) in HEO that was launched on Thu, 19 Jun 2025 UTC via an ANGARA A5 launch vehicle from the Plesetsk Missile And Space Complex (PKMTR). Payload-class satellites include a variety of spacecraft equipped with specific instruments for various scientific and technological missions. These include communications satellites like Starlink; space stations such as the ISS; scientific satellites like the Hubble; Earth observation satellites from companies like Planet Labs, Umbra, and HawkEye 360; GPS; miniature CubeSats for education and research; and military/defense satellites.

Not visible in the next 10 days
Identifier
64527, 2025-131C
Orbit
HEO
Country
Flag of CISCIS
Related business
Manufacturer
RESH/TSKHM
Mission
Operational Defense Technology
Bus & Motor
14F166-SS, Unknown motor
Mass
~200 kg wet, ~200 kg dry
Launch date (UTC)
2025-06-19 (10 months ago)
Launch vehicle
ANGARA A5
Launch site
Plesetsk Missile And Space Complex (PKMTR)
Object type
Payload
Rocket body
Debris
Shape & HBR
Box, 0.3 m
Radar Cross Section
0.375 m²

Expand to show TLE details & history
Last TLE update: 1 day ago

TLE from 1 day ago
0 COSMOS 2590
1 64527U 25131C   26093.48890209 -.00000304  00000-0  00000+0 0  9993
2 64527   0.1739  51.0154 3657809  48.4426  14.9513  1.00257222  2868
Epoch: 2026-04-03T11:44Z
TLE epoch observation values (Epoch: 2026-04-03T11:44:01.140Z)
Latitude
0.1455°
Longitude
125.12714°
Altitude
21,688.449 km
Speed
4.353 km/s
True Right ascension
08h 51m 49s
True Declination
0° 08' 43"
Sunlit
Object was in daylight at epoch
Visualization orbit readout
Latitude
Unknown
Longitude
Unknown
Altitude
Unknown
Speed
Unknown
Apparent Right ascension
Unknown
Apparent Declination
Unknown
Sunlit
N/A
Visualization observer readout
Local Sidereal Time
04:57:50
Azimuth
Unknown
Elevation
Unknown
Doppler factor
Unknown
Orbital elements
Apogee altitude
51,217.03 km
Perigee altitude
20,366.969 km
Semi-major axis
42,170.136 km
Eccentricity
0.36578
Inclination
0.1739°
RAAN
51.0154°
Arg. of periapsis
48.4426°
True anomaly
33.54336°
Mean anomaly
14.9513°
Eccentric anomaly
23.21117°
Mean motion
0.25063 °/min
Orbital period
1,436.37 mins
BSTAR
0
Loading maneuver chart data...
Computing Atmospheric mass density...
Loading historical data...
Loading historical data...
Loading historical data...
Loading historical data...
Loading historical data...
Loading historical data...
Loading historical data...
Other satellites on launch #131 in the year 2025 (2025-06-19 UTC)

Documentation

Showing up to 5 results
|